Location: Newark
(52.6086°N, 2.1080°W)
Time: 02:52:18
(UTC+00:00)

Envisat - Visible Passes

Search period start: 20 January 2020 00:00
Search period end: 30 January 2020 00:00
Orbit: 764 x 766 km, 98.1° (Epoch: 19 January)

Date Brightness Start Highest point End Pass type
(mag) Time Alt. Az. Time Alt. Az. Time Alt. Az.
20 Jan 5.4 05:57:53 10° NE 06:02:04 25° E 06:06:14 10° SSE visible
20 Jan 3.1 17:17:58 10° SSE 17:22:55 57° ENE 17:27:56 10° N visible
20 Jan 5.3 18:58:09 10° SSW 19:02:19 25° W 19:06:31 10° NW visible
21 Jan 6.2 05:22:29 10° ENE 05:24:48 13° E 05:27:05 10° ESE visible
21 Jan 3.3 06:59:36 10° NNE 07:04:43 76° ESE 07:09:48 10° S visible
21 Jan 4.1 18:20:21 10° S 18:25:14 48° W 18:30:11 10° NNW visible
22 Jan 4.5 06:23:00 10° NNE 06:27:47 39° E 06:32:32 10° SSE visible
22 Jan 3.0 17:43:16 10° SSE 17:48:22 89° ENE 17:53:30 10° NNW visible
22 Jan 5.9 19:25:02 10° SW 19:28:07 16° W 19:31:14 10° NW visible
23 Jan 5.7 05:46:51 10° NE 05:50:39 21° E 05:54:26 10° SE visible
23 Jan 3.0 07:25:07 10° N 07:30:12 70° WNW 07:35:15 10° SSW visible
23 Jan 5.0 18:46:27 10° SSW 18:50:55 30° W 18:55:24 10° NNW visible
24 Jan 6.4 05:12:31 10° ENE 05:13:19 10° E 05:14:06 10° E visible
24 Jan 3.6 06:48:19 10° NNE 06:53:24 62° ESE 06:58:26 10° S visible
24 Jan 3.7 18:08:54 10° S 18:13:54 58° W 18:18:57 10° NNW visible
25 Jan 4.9 06:11:50 10° NNE 06:16:25 32° E 06:20:57 10° SSE visible
25 Jan 3.0 17:32:01 10° SSE 17:37:05 74° ENE 17:42:11 10° NNW visible
25 Jan 5.7 19:13:03 10° SW 19:16:41 19° W 19:20:20 10° NW visible
26 Jan 6.0 05:35:54 10° NE 05:39:13 17° E 05:42:31 10° SE visible
26 Jan 3.0 07:13:48 10° NNE 07:18:55 84° WNW 07:24:01 10° SSW visible
26 Jan 4.6 18:34:51 10° SSW 18:39:32 37° W 18:44:15 10° NNW visible
27 Jan 4.0 06:37:05 10° NNE 06:42:04 51° E 06:47:01 10° S visible
27 Jan 3.3 17:57:31 10° S 18:02:35 71° WSW 18:07:41 10° NNW visible
27 Jan 6.3 19:40:37 10° WSW 19:42:33 12° W 19:44:31 10° WNW visible
28 Jan 5.3 06:00:43 10° NE 06:05:01 27° E 06:09:18 10° SSE visible
28 Jan 3.0 17:20:49 10° SSE 17:25:49 62° ENE 17:30:51 10° N visible
28 Jan 5.4 19:01:13 10° SW 19:05:15 24° W 19:09:19 10° NW visible
29 Jan 6.2 05:25:07 10° NE 05:27:46 14° E 05:30:24 10° ESE visible
29 Jan 3.2 07:02:30 10° NNE 07:07:38 81° ESE 07:12:43 10° SSW visible
29 Jan 4.2 18:23:19 10° S 18:28:09 44° W 18:33:03 10° NNW visible
